Zurück zum Katalog

STARLINK-30043

AktivKommunikationVLEO
NORAD 57417·PAYLOAD·🇺🇸 United States

Gestartet Jul 20, 2023 von Vandenberg Space Force Base

Loading…

Nächste Überflüge (nächste 24 Stunden)

TLE

AktuellSource: CelesTrak SupGP

Epoche: Sep 14, 2026, 22:14 UTC

1 57417C 23102P   26257.92687500  .00032193  00000+0  11663-2 0  2574
2 57417  43.0000 259.9270 0001557 268.1503 343.1423 15.27555470    12

Verfolge STARLINK-30043 in Echtzeit mit AllMySat

Download on the App Store